CAPE
0 2 4 1 3 3 3 4 0 0 0 0 0 0 15 0 0 0 0 0 0 0 0 3 5 6 9 134 128 117 43 3 1
0 0 0 0 0 1 0 1 0 0 0 3 12 0 0 9 0 0 0 0 0 0 0 0 1 4 2 33 61 63 45 5 3
0 0 0 0 0 0 0 0 0 0 0 5 0 0 0 0 0 0 0 0 0 0 0 0 0 0 1 1 0 1 2 2 0
0 0 0 0 0 0 0 0 0 0 0 0 0 0 0 0 0 0 0 0 0 0 0 0 0 0 0 0 0 0 0 0 0
1 0 0 0 0 0 0 0 0 0 0 0 0 0 0 0 0 0 0 0 0 0 0 0 0 0 0 0 0 0 0 0 0
17 3 0 0 0 0 0 0 0 0 0 0 0 0 0 0 0 0 0 0 0 0 0 0 0 0 0 0 0 0 0 0 0
25 22 9 1 0 0 0 0 0 0 0 0 0 0 0 0 0 0 0 0 0 0 0 0 0 0 0 0 0 0 0 0 0
17 1 0 0 0 0 0 0 0 0 0 0 0 0 0 0 0 0 0 0 0 0 48 0 0 0 0 0 0 0 0 0 0
19 0 0 0 0 0 0 0 0 0 0 0 0 0 0 0 0 0 0 0 0 0 0 60 52 4 0 0 0 0 0 0 0
0 0 0 0 0 0 0 0 0 0 0 0 0 0 0 0 0 0 0 0 0 0 0 9 54 110 42 0 0 0 0 0 0
0 0 0 0 0 0 0 0 0 0 0 0 0 0 0 0 0 0 0 0 0 0 0 0 27 77 89 94 25 0 0 0 0
0 0 0 0 0 0 0 0 0 0 0 0 0 0 0 0 0 0 0 0 0 0 0 0 21 56 70 79 104 76 2 0 0
0 0 0 0 0 0 0 0 0 0 0 0 0 0 0 0 0 0 0 0 0 3 2 12 34 46 65 67 67 77 62 80 34
46 6 4 0 33 5 0 1 0 2 4 12 17 10 4 0 0 0 0 26 32 21 19 28 47 25 17 25 51 27 54 41 46
258 233 209 167 99 66 61 55 30 20 28 26 8 3 0 2 0 0 8 23 12 20 31 32 13 3 0 3 6 11 3 11 34
387 363 335 287 248 219 132 95 96 44 46 42 9 5 1 0 0 0 11 15 0 0 0 2 0 0 0 0 0 0 0 0 0
450 403 312 214 250 262 205 157 31 7 7 9 13 7 0 0 0 0 0 0 0 0 0 0 0 0 0 0 0 0 0 0 0
49 62 128 112 94 93 48 14 6 10 8 13 26 15 6 1 0 0 0 0 0 0 0 0 0 0 0 0 0 0 0 0 1
0 0 0 0 0 0 0 0 0 3 0 1 1 15 23 6 6 0 0 0 9 0 0 0 0 0 0 0 0 0 0 1 2
0 0 0 0 0 0 0 0 0 0 0 0 0 0 0 8 29 3 0 7 0 0 0 0 0 0 0 0 0 1 2 2 2
CIN
0 0 0 0 0 0 0 0 0 0 0 0 0 -1 -81 0 0 0 0 0 0 0 0 0 0 0 0 -38 -45 -48 -11 0 0
0 0 0 0 0 0 0 0 0 0 0 -29 -107 0 0 -139 0 0 0 0 0 0 0 0 0 0 0 -21 -20 -18 -28 0 0
0 0 0 0 0 0 0 0 0 0 0 -70 0 0 0 0 0 0 0 0 0 0 0 0 0 0 0 0 0 0 0 0 0
0 0 0 0 0 0 0 0 0 0 0 0 0 0 0 0 0 0 0 0 0 0 0 0 0 0 0 0 0 0 0 0 0
-11 0 0 0 0 0 0 0 0 0 0 0 0 0 0 0 0 0 0 0 0 0 0 0 0 0 0 0 0 0 0 0 0
-209 -56 0 0 0 0 0 0 0 0 0 0 0 0 0 0 0 0 0 0 0 0 0 0 0 0 0 0 0 0 0 0 0
-201 -220 -257 -32 0 0 0 0 0 0 0 0 0 0 0 0 0 0 0 0 0 0 0 0 0 0 0 0 0 0 0 0 0
-226 -28 0 0 0 0 0 0 0 0 0 0 0 0 0 0 0 0 0 0 0 0 -45 0 0 0 0 0 0 0 0 0 0
-191 0 0 0 0 0 0 0 0 0 0 0 0 0 0 0 0 0 0 0 0 0 0 -15 -23 -28 0 0 0 0 0 0 0
0 0 0 0 0 0 0 0 0 0 0 0 0 0 0 0 0 0 0 0 0 0 0 -29 -1 0 -18 0 0 0 0 0 0
0 0 0 0 0 0 0 0 0 0 0 0 0 0 0 0 0 0 0 0 0 0 0 0 -24 -3 0 0 0 0 0 0 0
0 0 0 0 0 0 0 0 0 0 0 0 0 0 0 0 0 0 0 0 0 0 0 0 -24 -20 -11 -3 0 0 0 0 0
0 0 0 0 0 0 0 0 0 0 0 0 0 -10 0 0 0 0 0 0 -8 -32 -34 -20 -21 -14 -10 -5 -2 -3 -4 0 -1
-129 -58 -48 0 -74 -25 0 -44 -6 -32 -34 -39 -78 -19 -20 0 0 0 0 -15 -29 -38 -41 -28 -36 -27 -21 -17 -8 -5 -1 -1 -3
-56 -52 -39 -37 -40 -38 -33 -22 -28 -45 -46 -63 -11 -11 -2 -5 0 0 -14 -17 -19 -33 -53 -50 -59 -56 -12 -7 -10 -18 -7 -23 -1
-46 -37 -9 -15 -14 -10 -19 -23 -20 -50 -53 -85 -5 -4 -11 0 0 0 -20 -36 0 0 0 -103 -1 0 0 0 0 0 0 0 0
-33 -25 -21 -24 -20 -18 -16 -15 -23 -14 -8 -6 -7 -5 0 0 0 0 0 0 0 0 -78 0 0 0 0 0 0 0 0 0 0
-131 -123 -71 -63 -61 -39 -47 -27 -17 -7 -9 -7 -3 -1 -4 -7 0 0 0 0 0 0 0 0 0 0 0 0 0 0 0 0 0
0 0 0 0 0 0 -1 0 -2 -8 -1 -6 -8 -8 -6 -11 -2 0 0 0 -49 0 0 0 0 0 0 0 0 0 0 0 0
0 0 0 0 0 0 0 0 0 0 0 0 -2 0 -2 -3 -1 -1 0 -45 0 0 0 0 0 0 0 0 0 0 0 0 0
Wind_Speed
22 22 21 21 22 22 22 23 24 24 24 24 25 26 26 26 26 27 28 28 28 27 27 27 27 28 27 26 25 25 25 25 25
22 22 21 21 22 22 23 23 24 24 24 24 25 25 25 24 25 26 26 26 26 27 27 26 25 25 25 25 25 24 24 24 24
21 22 21 21 21 22 23 23 23 23 23 23 23 23 25 22 23 24 25 25 25 25 26 25 25 24 23 23 23 23 23 23 24
20 20 20 20 20 21 21 21 21 21 21 20 19 20 22 21 20 21 22 22 23 24 24 24 24 24 23 22 22 22 22 22 23
17 18 18 18 18 18 18 19 19 19 18 17 16 16 17 18 17 18 19 20 21 21 22 22 23 23 22 22 22 22 22 22 22
14 15 16 16 16 16 16 16 16 15 15 14 13 14 14 15 14 15 17 18 18 18 19 20 21 21 21 21 21 21 21 21 21
13 13 14 14 14 14 14 13 13 13 13 12 11 12 13 15 14 14 14 16 16 16 16 17 18 19 19 20 20 20 20 20 20
11 12 12 11 11 11 12 12 12 12 12 11 9 10 12 14 15 12 12 14 15 14 14 14 15 17 18 18 18 19 19 19 19
9 10 10 11 10 10 10 10 10 10 10 10 11 11 13 13 13 12 11 12 14 14 13 13 13 15 16 16 16 17 17 18 18
9 8 9 9 10 10 8 8 9 10 9 10 9 10 12 11 11 12 9 11 13 14 13 13 13 12 13 13 13 14 15 15 16
10 10 10 10 11 12 13 12 13 13 14 13 12 12 11 10 11 12 11 10 12 13 13 14 14 14 13 12 10 11 12 13 14
10 12 12 12 12 12 14 14 15 15 16 15 14 13 12 11 13 14 12 11 11 11 13 15 14 15 14 13 12 9 10 11 13
11 12 13 12 12 11 13 14 15 15 15 15 13 14 15 13 15 16 15 14 12 11 11 13 14 16 16 18 16 15 13 10 11
10 12 13 14 14 13 13 14 15 17 17 17 19 20 18 20 20 18 16 16 16 15 13 11 16 18 18 19 22 25 24 20 15
9 12 14 15 16 17 16 17 18 19 20 22 21 22 22 21 19 19 16 17 20 19 16 16 20 20 23 24 23 24 26 26 24
11 13 16 19 19 20 21 21 22 22 23 26 27 23 21 19 18 19 17 18 16 17 18 20 21 23 23 24 24 26 27 28 27
15 17 19 21 22 23 24 24 26 25 24 27 29 30 26 22 22 20 16 15 15 16 19 22 21 21 22 24 26 27 28 29 28
19 21 22 23 24 26 25 25 25 28 25 24 24 29 26 24 21 21 18 15 16 19 19 18 18 20 21 24 27 28 29 28 28
21 22 24 25 26 26 25 25 25 25 27 25 21 20 23 27 28 21 20 19 19 18 17 17 18 20 22 24 27 28 28 27 27
20 23 25 25 25 25 25 25 25 24 24 24 24 24 24 23 24 26 22 20 20 18 17 18 19 21 22 25 26 27 28 27 25
Wind_Direction
64 64 62 59 57 55 52 53 58 60 66 62 63 61 59 62 54 47 46 49 48 44 43 45 45 41 42 43 42 41 40 35 31
65 67 65 63 59 56 54 54 58 61 62 64 70 67 45 72 56 49 46 46 44 41 38 41 45 45 42 38 38 37 35 32 29
67 69 68 66 62 58 59 59 62 60 66 67 70 60 42 66 55 51 48 46 42 39 38 39 40 42 40 37 34 33 32 30 25
65 67 69 69 66 63 62 60 58 60 67 67 73 65 55 53 60 55 51 47 43 39 37 35 36 37 36 34 32 31 29 25 23
61 63 67 68 66 63 60 60 62 67 72 76 79 77 64 59 61 55 49 47 42 41 38 35 33 33 33 31 29 28 26 23 22
56 57 60 60 59 59 64 66 68 74 78 83 87 79 69 59 59 56 49 43 43 40 37 34 32 31 31 28 26 25 24 21 19
50 53 59 57 58 61 66 66 73 73 74 80 89 70 59 48 52 51 47 41 40 39 36 33 30 28 27 28 26 24 21 19 17
46 41 49 57 62 60 68 66 68 67 62 67 76 62 50 41 33 47 44 36 32 33 32 31 29 25 23 24 24 22 19 16 14
30 37 53 57 61 64 64 63 59 62 62 59 54 43 37 35 32 35 37 30 25 22 24 22 21 19 17 18 19 18 16 14 11
9 28 35 46 44 39 61 65 53 45 49 40 44 35 31 29 25 23 26 20 16 14 13 11 9 9 8 10 12 15 14 13 12
348 1 12 14 17 15 10 13 15 14 11 18 20 19 17 17 14 12 10 6 6 6 6 2 1 358 357 357 1 4 6 6 7
337 342 346 357 2 5 0 1 360 1 359 2 7 7 7 5 2 0 356 354 353 357 358 357 356 357 353 351 351 350 349 354 354
326 332 337 351 356 3 360 355 353 354 356 357 359 357 357 357 352 350 350 347 347 344 346 350 354 355 356 353 350 345 341 338 341
325 330 333 335 342 349 349 349 348 345 345 346 345 345 346 343 342 342 344 345 346 343 342 348 351 352 355 352 349 343 339 336 335
323 326 327 330 331 333 336 337 338 337 336 335 336 337 337 337 337 337 342 343 347 353 2 1 355 355 351 349 348 345 339 335 334
313 320 322 322 324 324 327 328 329 330 333 330 330 335 337 336 337 339 339 344 357 2 360 358 356 353 356 356 352 345 339 334 332
314 314 317 319 319 321 321 322 322 325 329 325 326 328 335 339 346 349 354 357 358 357 355 352 353 355 356 354 350 345 339 334 331
309 309 312 315 316 315 318 319 320 318 324 325 326 327 331 338 345 348 351 352 348 346 350 354 358 358 355 351 347 342 339 337 333
307 309 310 312 315 315 317 320 320 320 319 324 325 323 323 325 327 338 341 342 342 345 350 353 357 356 353 351 346 342 338 337 334
317 312 310 315 317 318 319 320 320 322 321 321 322 322 322 321 319 322 328 335 341 346 348 350 352 352 353 350 347 342 339 338 340